STARLINK-11160, 60125

Orbit data source: Space-Track

STARLINK-11160, 60125 is a payload satellite owned by SpaceX/Seattle (US) in LEO that was launched on Mon, 24 Jun 2024 UTC via an FALCON 9 launch vehicle from the Air Force Western Test Range (AFWTR). Payload-class satellites include a variety of spacecraft equipped with specific instruments for various scientific and technological missions. These include communications satellites like Starlink; space stations such as the ISS; scientific satellites like the Hubble; Earth observation satellites from companies like Planet Labs, Umbra, and HawkEye 360; GPS; miniature CubeSats for education and research; and military/defense satellites.

Loading next visibility...
Identifier
60125, 2024-118N
Orbit
LEO
Country
Flag of USUS
Related business
Manufacturer
SpaceX/Seattle
Mission
Operational Commercial Communications
Bus & Motor
STARLINK V2MD, Unknown motor
Mass
960 kg wet, ~910 kg dry
Launch date (UTC)
2024-06-24 (2 years ago)
Launch vehicle
FALCON 9
Launch site
Air Force Western Test Range (AFWTR)
Object type
Payload
Rocket body
Debris
Shape & HBR
Box + 2 Pan, 18.1 m
Radar Cross Section
36.964 m², Large (>1 m²)

Expand to show TLE details & history
Last TLE update: 10 hours ago

TLE from 10 hours ago
0 STARLINK-11160
1 60125U 24118N   26126.87359627 -.00001975  00000-0 -11450-4 0  9993
2 60125  53.1605 294.2897 0001035 129.5414 230.5696 15.69708601107138
Epoch: 2026-05-06T20:57Z
TLE epoch observation values (Epoch: 2026-05-06T20:57:58.717Z)
Latitude
0.00001°
Longitude
115.06721°
Altitude
361.089 km
Speed
7.694 km/s
True Right ascension
19h 37m 09s
True Declination
0° 00' 00"
Sunlit
Object was in partial shadow at epoch
Visualization orbit readout
Latitude
Unknown
Longitude
Unknown
Altitude
Unknown
Speed
Unknown
Apparent Right ascension
Unknown
Apparent Declination
Unknown
Sunlit
N/A
Visualization observer readout
Local Sidereal Time
14:43:51
Azimuth
Unknown
Elevation
Unknown
Doppler factor
Unknown
Orbital elements
Apogee altitude
360.689 km
Perigee altitude
359.294 km
Semi-major axis
6,738.128 km
Eccentricity
0.0001
Inclination
53.1605°
RAAN
294.2897°
Arg. of periapsis
129.5414°
True anomaly
230.56044°
Mean anomaly
230.5696°
Eccentric anomaly
230.56502°
Mean motion
3.92405 °/min
Orbital period
91.74 mins
BSTAR
-0.00001145
Loading maneuver chart data...
Computing Atmospheric mass density...
Loading historical data...
Loading historical data...
Loading historical data...
Loading historical data...
Loading historical data...
Loading historical data...
Loading historical data...

Documentation

Showing up to 5 results
|